Weather History for Saint Paul Island, AK

Change the Weather History Date:

Wednesday, January 8, 2014

  Actual Average Record
Temperature  
Mean Temperature 35 °F 26 °F  
Max Temperature 37 °F 30 °F 40 °F (1979)
Min Temperature 33 °F 22 °F 4 °F (2000)
Degree Days  
Heating Degree Days 30 39  
Month to date heating degree days 244 309  
Since 1 July heating degree days 4509 4850  
Cooling Degree Days 0    
Month to date cooling degree days 0  
Year to date cooling degree days 0  
Moisture  
Dew Point 33 °F    
Average Humidity 0    
Maximum Humidity 0    
Minimum Humidity 0    
Precipitation  
Precipitation 0.04 in 0.06 in 0.29 in (1950)
Month to date precipitation 0.52 0.47  
Year to date precipitation 0.52 0.47  
Snow  
Snow T in 0.40 in 4.20 in (2002)
Month to date snowfall 0.3 3.4  
Since 1 July snowfall 8.5 25.8  
Snow Depth 0.00 in    
Sea Level Pressure  
Sea Level Pressure 29.03 in    
Wind  
Wind Speed 12 mph (SSW)    
Max Wind Speed 23 mph    
Max Gust Speed 28 mph    
Visibility 8 miles    
Events Rain , Snow    
T = Trace of Precipitation, MM = Missing Value Source: NWS Daily Summary

Daily Weather History Graph

Daily Weather History Graph

Search for Another Location

Airport:

Trip Planner

Search our weather history database for the weather conditions in past years. The results will help you decide how hot, cold, wet, or windy it might be!

Date:

Astronomy

Jan. 08, 2014 Rise Set
Actual Time 10:55 AM AKST 6:00 PM AKST
Civil Twilight 10:07 AM AKST 6:48 PM AKST
Nautical Twilight 9:17 AM AKST 7:38 PM AKST
Astronomical Twilight 8:31 AM AKST 8:24 PM AKST
Moon 1:38 PM AKST (1/8) 3:32 AM AKST (1/8)
Length of Visible Light 8h 40m
Length of Day
7h 04m
First Quarter, 57% of the Moon is Illuminated
Jan 8
First Quarter
Jan 15
Full
Jan 23
Last Quarter
Jan 30
New
Feb 6
First Quarter

Hourly Weather History & Observations

Time (AKST) Temp. Windchill Dew Point Humidity Pressure Visibility Wind Dir Wind Speed Gust Speed Precip Events Conditions
12:04 AM 35.6 °F 27.5 °F 35.6 °F 100% 28.95 in 6.0 mi SW 11.5 mph - N/A   Overcast
12:21 AM 35.6 °F 28.0 °F 35.6 °F 100% 28.96 in 6.0 mi SW 10.4 mph - 0.00 in Rain Light Rain
12:53 AM 36.0 °F 27.5 °F 35.1 °F 97% 28.97 in 8.0 mi SSW 12.7 mph - 0.01 in   Overcast
1:02 AM 35.6 °F 27.5 °F 35.6 °F 100% 28.96 in 8.0 mi SW 11.5 mph - N/A   Mostly Cloudy
1:14 AM 35.6 °F 26.2 °F 33.8 °F 93% 28.97 in 6.0 mi SW 15.0 mph - N/A   Mostly Cloudy
1:53 AM 35.1 °F 26.4 °F 34.0 °F 96% 28.98 in 7.0 mi SW 12.7 mph - 0.00 in Rain Light Rain
2:07 AM 35.6 °F 24.8 °F 33.8 °F 93% 28.98 in 7.0 mi SW 19.6 mph 24.2 mph 0.00 in   Overcast
3:53 AM 36.0 °F 26.0 °F 33.1 °F 89% 29.00 in 10.0 mi SW 17.3 mph - N/A   Overcast
4:53 AM 36.0 °F 26.7 °F 33.1 °F 89% 29.01 in 9.0 mi SW 15.0 mph - N/A   Overcast
5:53 AM 36.0 °F 26.0 °F 33.1 °F 89% 29.02 in 10.0 mi SSW 17.3 mph - N/A   Overcast
6:53 AM 35.1 °F 25.2 °F 30.9 °F 85% 29.01 in 10.0 mi SSW 16.1 mph - N/A   Mostly Cloudy
7:53 AM 35.1 °F 24.8 °F 30.9 °F 85% 29.02 in 10.0 mi SSW 17.3 mph - 0.00 in   Partly Cloudy
8:46 AM 33.8 °F 27.0 °F 30.2 °F 87% 29.02 in 2.5 mi SW 8.1 mph - 0.00 in Snow Light Snow
8:49 AM 33.8 °F 27.0 °F 30.2 °F 87% 29.02 in 5.0 mi SW 8.1 mph - 0.00 in Snow Light Snow
8:53 AM 33.1 °F 26.9 °F 30.9 °F 92% 29.02 in 9.0 mi SW 6.9 mph - 0.00 in   Scattered Clouds
9:53 AM 34.0 °F 25.5 °F 30.0 °F 85% 29.03 in 7.0 mi SSW 11.5 mph - 0.00 in Snow Light Snow
10:53 AM 34.0 °F 26.0 °F 32.0 °F 92% 29.05 in 6.0 mi SSW 10.4 mph 20.7 mph 0.00 in Snow Light Snow
11:53 AM 35.1 °F 27.4 °F 32.0 °F 89% 29.06 in 10.0 mi South 10.4 mph - 0.00 in   Mostly Cloudy
12:53 PM 36.0 °F 28.5 °F 33.1 °F 89% 29.06 in 10.0 mi South 10.4 mph - N/A   Mostly Cloudy
1:53 PM 35.1 °F 26.4 °F 33.1 °F 92% 29.06 in 10.0 mi South 12.7 mph - N/A   Mostly Cloudy
2:17 PM 35.6 °F 27.1 °F 33.8 °F 93% 29.05 in 10.0 mi South 12.7 mph - N/A   Mostly Cloudy
2:42 PM 35.6 °F 28.0 °F 33.8 °F 93% 29.04 in 10.0 mi SW 10.4 mph - N/A   Mostly Cloudy
2:53 PM 35.6 °F 29.2 °F 32.0 °F 87% 29.05 in 9.0 mi SW 8.1 mph - N/A   Mostly Cloudy
3:53 PM 35.1 °F 27.4 °F 32.0 °F 89% 29.04 in 10.0 mi SSW 10.4 mph - 0.00 in   Mostly Cloudy
4:29 PM 33.8 °F 23.5 °F 30.2 °F 87% 29.04 in 2.5 mi SSW 16.1 mph 24.2 mph 0.00 in Rain , Snow Light Snow
4:35 PM 33.8 °F 27.7 °F 32.0 °F 93% 29.04 in 1.2 mi SW 6.9 mph 21.9 mph 0.00 in Snow Light Snow
4:39 PM 33.8 °F 27.7 °F 32.0 °F 93% 29.04 in 7.0 mi SW 6.9 mph - 0.01 in   Mostly Cloudy
4:53 PM 33.1 °F 27.7 °F 32.0 °F 96% 29.04 in 10.0 mi South 5.8 mph - 0.01 in   Mostly Cloudy
5:53 PM 34.0 °F 26.0 °F 32.0 °F 92% 29.05 in 10.0 mi South 10.4 mph - N/A   Scattered Clouds
6:53 PM 35.1 °F 27.4 °F 32.0 °F 89% 29.04 in 10.0 mi South 10.4 mph - N/A   Mostly Cloudy
7:32 PM 33.8 °F 24.8 °F 32.0 °F 93% 29.05 in 5.0 mi SW 12.7 mph 16.1 mph 0.00 in   Mostly Cloudy
7:53 PM 34.0 °F 26.6 °F 33.1 °F 96% 29.05 in 10.0 mi South 9.2 mph - 0.00 in   Mostly Cloudy
8:53 PM 33.1 °F 26.1 °F 32.0 °F 96% 29.06 in 10.0 mi SSW 8.1 mph - N/A   Clear
9:53 PM 34.0 °F 24.2 °F 32.0 °F 92% 29.07 in 10.0 mi South 15.0 mph - N/A   Scattered Clouds
10:53 PM 34.0 °F 25.0 °F 32.0 °F 92% 29.07 in 10.0 mi South 12.7 mph - N/A   Partly Cloudy
11:22 PM 33.8 °F 24.3 °F 33.8 °F 100% 29.07 in 10.0 mi SSW 13.8 mph - N/A   Mostly Cloudy
11:53 PM 33.1 °F 24.4 °F 32.0 °F 96% 29.08 in 3.0 mi South 11.5 mph - 0.01 in Snow Light Snow